User: anonymous   Login
Location: Unspecified
(0.0000°N, 0.0000°E)
Time: 15:16:40
(UTC+00:00)
Language:

FUSE - Orbit

View from above orbital plane
View from above orbital plane
View from above satellite
View from above satellite

Ground track
Ground track

The orbit data is extracted from the following two-line orbital elements,

1 25791U 99035A   18345.32715909  .00000225  00000-0  13146-4 0  9995
2 25791  24.9856 313.7960 0010193 341.6429  18.3710 14.42769425 27038
Epoch (UTC): 11 December 2018 07:51:06
Eccentricity: 0.0010193
inclination: 24.9856°
perigee height: 742 km
apogee height: 756 km
right ascension of ascending node: 313.7960°
argument of perigee: 341.6429°
revolutions per day: 14.42769425
mean anomaly at epoch: 18.3710°
orbit number at epoch: 2703

The dashed part of the orbit path shows where the satellite is in the earth's shadow,  

DLR